�������C�����ː����j�^�v���󋵏��
Date,Time,Cs137(Bq/L),Cs134(Bq/L),�S��(Bq/L)
2017/07/01,00:00,0.85,0.058,ND
2017/07/01,00:10,0.90,0.055,ND
2017/07/01,00:20,0.88,0.071,ND
2017/07/01,00:30,0.85,0.092,ND
2017/07/01,00:40,0.89,0.064,ND
2017/07/01,00:50,0.88,0.063,ND
2017/07/01,01:00,0.86,0.086,ND
2017/07/01,01:10,0.86,0.076,ND
2017/07/01,01:20,0.90,0.064,ND
2017/07/01,01:30,0.92,0.053,ND
2017/07/01,01:40,0.93,0.054,ND
2017/07/01,01:50,0.93,0.053,ND
2017/07/01,02:00,0.92,0.048,ND
2017/07/01,02:10,0.90,0.059,ND
2017/07/01,02:20,0.92,0.057,ND
2017/07/01,02:30,0.95,0.047,ND
2017/07/01,02:40,0.93,0.072,ND
2017/07/01,02:50,0.97,0.053,9.6
2017/07/01,03:00,0.97,0.051,ND
2017/07/01,03:10,1.0,0.049,ND
2017/07/01,03:20,0.97,0.051,ND
2017/07/01,03:30,0.94,0.049,ND
2017/07/01,03:40,0.92,0.064,ND
2017/07/01,03:50,0.95,0.031,ND
2017/07/01,04:00,0.89,0.063,ND
2017/07/01,04:10,0.87,0.056,ND
2017/07/01,04:20,0.88,0.054,ND
2017/07/01,04:30,0.87,0.055,ND
2017/07/01,04:40,0.86,0.046,ND
2017/07/01,04:50,0.86,0.050,ND
2017/07/01,05:00,0.85,0.050,ND
2017/07/01,05:10,0.84,0.056,ND
2017/07/01,05:20,0.82,0.057,ND
2017/07/01,05:30,0.82,0.058,ND
2017/07/01,05:40,0.82,0.053,ND
2017/07/01,05:50,0.78,0.053,ND
2017/07/01,06:00,0.78,0.048,ND
2017/07/01,06:10,0.78,0.043,ND
2017/07/01,06:20,0.77,0.046,ND
2017/07/01,06:30,0.76,0.047,ND
2017/07/01,06:40,0.82,0.041,ND
2017/07/01,06:50,0.80,0.039,ND
2017/07/01,07:00,0.81,0.040,ND
2017/07/01,07:10,0.82,0.039,ND
2017/07/01,07:20,0.84,0.041,ND
2017/07/01,07:30,0.84,0.046,ND
2017/07/01,07:40,0.81,0.073,ND
2017/07/01,07:50,0.82,0.061,ND
2017/07/01,08:00,0.81,0.060,ND
2017/07/01,08:10,0.81,0.060,ND
2017/07/01,08:20,0.81,0.057,ND
2017/07/01,08:30,0.80,0.056,ND
2017/07/01,08:40,0.79,0.064,ND
2017/07/01,08:50,0.80,0.056,ND
2017/07/01,09:00,0.84,0.048,ND
2017/07/01,09:10,0.84,0.050,ND
2017/07/01,09:20,0.86,0.050,ND
2017/07/01,09:30,0.87,0.049,ND
2017/07/01,09:40,0.86,0.054,ND
2017/07/01,09:50,0.89,0.052,ND
2017/07/01,10:00,0.85,0.081,ND
2017/07/01,10:10,0.89,0.044,ND
2017/07/01,10:20,0.86,0.047,ND
2017/07/01,10:30,0.79,0.076,ND
2017/07/01,10:40,0.80,0.072,ND
2017/07/01,10:50,0.83,0.043,ND
2017/07/01,11:00,0.80,0.037,ND
2017/07/01,11:10,0.81,0.041,ND
2017/07/01,11:20,0.83,0.039,ND
2017/07/01,11:30,0.86,0.040,ND
2017/07/01,11:40,0.84,0.062,ND
2017/07/01,11:50,0.83,0.075,ND
2017/07/01,12:00,0.86,0.078,ND
2017/07/01,12:10,0.86,0.076,ND
2017/07/01,12:20,0.90,0.051,ND
2017/07/01,12:30,0.83,0.080,ND
2017/07/01,12:40,0.86,0.061,ND
2017/07/01,12:50,0.88,0.049,ND
2017/07/01,13:00,0.88,0.050,ND
2017/07/01,13:10,0.91,0.048,ND
2017/07/01,13:20,0.92,0.055,ND
2017/07/01,13:30,0.92,0.075,ND
2017/07/01,13:40,0.91,0.089,ND
2017/07/01,13:50,0.92,0.089,ND
2017/07/01,14:00,0.89,0.089,ND
2017/07/01,14:10,0.92,0.063,ND
2017/07/01,14:20,0.87,0.086,ND
2017/07/01,14:30,0.85,0.079,ND
2017/07/01,14:40,0.80,0.090,ND
2017/07/01,14:50,0.77,0.090,ND
2017/07/01,15:00,0.77,0.091,ND
2017/07/01,15:10,0.75,0.088,ND
2017/07/01,15:20,0.74,0.083,ND
2017/07/01,15:30,0.74,0.077,ND
2017/07/01,15:40,0.76,0.066,ND
2017/07/01,15:50,0.75,0.055,ND
2017/07/01,16:00,0.72,0.054,ND
2017/07/01,16:10,0.70,0.066,ND
2017/07/01,16:20,0.75,0.043,ND
2017/07/01,16:30,0.75,0.037,ND
2017/07/01,16:40,0.76,0.039,ND
2017/07/01,16:50,0.76,0.044,ND
2017/07/01,17:00,0.78,0.045,ND
2017/07/01,17:10,0.76,0.062,ND
2017/07/01,17:20,0.80,0.025,ND
2017/07/01,17:30,0.81,0.029,ND
2017/07/01,17:40,0.79,0.026,ND
2017/07/01,17:50,0.80,0.025,ND
2017/07/01,18:00,0.82,ND,ND
2017/07/01,18:10,0.80,ND,ND
2017/07/01,18:20,0.79,ND,ND
2017/07/01,18:30,0.78,ND,ND
2017/07/01,18:40,0.79,ND,ND
2017/07/01,18:50,0.74,0.027,ND
2017/07/01,19:00,0.72,0.032,ND
2017/07/01,19:10,0.73,0.035,ND
2017/07/01,19:20,0.73,0.046,ND
2017/07/01,19:30,0.72,0.046,ND
2017/07/01,19:40,0.72,0.047,ND
2017/07/01,19:50,0.74,0.042,ND
2017/07/01,20:00,0.75,0.044,ND
2017/07/01,20:10,0.77,0.035,ND
2017/07/01,20:20,0.74,0.033,ND
2017/07/01,20:30,0.74,0.035,9.9
2017/07/01,20:40,0.72,0.039,9.6
2017/07/01,20:50,0.69,0.038,9.2
2017/07/01,21:00,0.68,0.044,11
2017/07/01,21:10,0.65,0.049,9.0
2017/07/01,21:20,0.67,0.047,ND
2017/07/01,21:30,0.67,0.041,ND
2017/07/01,21:40,0.71,0.035,ND
2017/07/01,21:50,0.72,0.034,ND
2017/07/01,22:00,0.78,ND,ND
2017/07/01,22:10,0.75,0.029,ND
2017/07/01,22:20,0.73,0.053,ND
2017/07/01,22:30,0.77,0.040,ND
2017/07/01,22:40,0.77,0.047,ND
2017/07/01,22:50,0.76,0.053,ND
2017/07/01,23:00,0.77,0.058,ND
2017/07/01,23:10,0.76,0.064,ND
2017/07/01,23:20,0.76,0.061,ND
2017/07/01,23:30,0.76,0.063,ND
2017/07/01,23:40,0.78,0.059,ND
2017/07/01,23:50,0.79,0.061,ND
